Location: Castellar de la Frontera
(36.3200°N, 5.4500°W)
Time: 15:29:36
(UTC+02:00)

ISS - Pass Details

Date: 21 July 2018
Orbit: 402 x 408 km, 51.6° (Epoch: 21 July)

Event Time Altitude Azimuth Distance (km) Brightness Sun altitude
Rises 06:10:13 0° 308° (NW) 2,327 -0.1 -12.7°
Reaches altitude 10° 06:12:19 10° 305° (NW) 1,465 -1.2 -12.4°
Maximum altitude 06:15:34 63° 224° (SW) 458 -3.9 -11.9°
Drops below altitude 10° 06:18:48 10° 142° (SE) 1,457 -1.0 -11.3°
Sets 06:20:53 0° 139° (SE) 2,314 0.1 -11.0°
